Location: Izdebno
(52.6670°N, 16.2170°E)
Time: 07:23:37
(UTC+02:00)

Vanguard 1 - Pass Details

Date: 02 March 2024
Orbit: 653 x 3825 km, 34.2° (Epoch: 22 April)

Event Time Altitude Azimuth Distance (km) Brightness Sun altitude
Rises 17:48:29 0° 214° (SW) 4,566 14.2 -2.6°
Reaches altitude 10° 17:51:39 10° 202° (SSW) 3,968 13.6 -3.1°
Maximum altitude 18:00:31 28° 149° (SSE) 3,717 12.8 -4.4°
Drops below altitude 10° 18:14:03 10° 101° (E) 6,180 13.5 -6.5°
Enters shadow 18:16:23 - 97° (E) 6,685 13.6 -6.8°
